• In Romania
  • List of Countries
  • For 7 days
  • Water Temperature
  • Satellite Maps
  • Weather Map
  • Weather Widgets
  • user-avatar
    Login

    Hourly Weather Fofanovo

    Today, 16 November, Friday

    Time Temperature Precipitation Wind Pressure Humidity
    00:00 0°C° 0 mm 1 mps 760 mmHg 94%
    01:00 -1°C° 0 mm 0 mps 761 mmHg 94%
    02:00 -1°C° 0 mm 0 mps 761 mmHg 94%
    03:00 -1°C° 0 mm 0 mps 761 mmHg 94%
    04:00 -2°C° 0 mm 0 mps 761 mmHg 94%
    05:00 -1°C° 0 mm 1 mps 762 mmHg 94%
    06:00 -1°C° 0 mm 1 mps 762 mmHg 94%
    07:00 -1°C° 0 mm 1 mps 762 mmHg 94%
    08:00 -1°C° 0 mm 1 mps 763 mmHg 94%
    09:00 0°C° 0 mm 1 mps 763 mmHg 91%
    10:00 +1°C° 0 mm 1 mps 763 mmHg 88%
    11:00 +2°C° 0 mm 1 mps 763 mmHg 84%
    12:00 +2°C° 0 mm 1 mps 763 mmHg 85%
    13:00 +2°C° 0 mm 1 mps 763 mmHg 86%
    14:00 +2°C° 0 mm 1 mps 763 mmHg 86%
    15:00 +1°C° 0 mm 1 mps 763 mmHg 88%
    16:00 0°C° 0 mm 1 mps 763 mmHg 90%
    17:00 -1°C° 0 mm 1 mps 763 mmHg 91%
    18:00 -1°C° 0 mm 1 mps 763 mmHg 91%
    19:00 -1°C° 0 mm 1 mps 763 mmHg 91%
    20:00 -1°C° 0 mm 1 mps 763 mmHg 91%
    21:00 -1°C° 0 mm 1 mps 763 mmHg 90%
    22:00 -1°C° 0 mm 1 mps 763 mmHg 90%
    23:00 -1°C° 0 mm 1 mps 763 mmHg 89%

    Tomorrow, 17 November, Saturday

    Time Temperature Precipitation Wind Pressure Humidity
    00:00 -1°C° 0 mm 1 mps 763 mmHg 89%
    01:00 -1°C° 0 mm 1 mps 763 mmHg 88%
    02:00 -3°C° 0 mm 2 mps 763 mmHg 88%
    03:00 -4°C° 0 mm 2 mps 762 mmHg 88%
    04:00 -4°C° 0 mm 2 mps 762 mmHg 88%
    05:00 -4°C° 0 mm 2 mps 761 mmHg 89%
    06:00 -4°C° 0 mm 2 mps 761 mmHg 89%
    07:00 -4°C° 0 mm 2 mps 761 mmHg 89%
    08:00 -4°C° 0 mm 2 mps 760 mmHg 89%
    09:00 -4°C° 0 mm 3 mps 760 mmHg 87%
    10:00 -2°C° 0 mm 3 mps 759 mmHg 84%
    11:00 -1°C° 0 mm 3 mps 759 mmHg 82%
    12:00 -1°C° 0.1 mm 3 mps 758 mmHg 83%
    13:00 0°C° 0.1 mm 3 mps 757 mmHg 84%
    14:00 0°C° 0.1 mm 3 mps 756 mmHg 85%
    15:00 0°C° 0.1 mm 3 mps 756 mmHg 86%
    16:00 0°C° 0.1 mm 3 mps 755 mmHg 88%
    17:00 0°C° 0.1 mm 3 mps 754 mmHg 90%
    18:00 0°C° 0 mm 3 mps 753 mmHg 90%
    19:00 0°C° 0 mm 3 mps 752 mmHg 91%
    20:00 -1°C° 0 mm 4 mps 752 mmHg 92%
    21:00 -1°C° 0.1 mm 4 mps 751 mmHg 93%
    22:00 0°C° 0.1 mm 3 mps 750 mmHg 94%
    23:00 0°C° 0.1 mm 3 mps 749 mmHg 94%

    Day after tomorrow, 18 November, Sunday

    Time Temperature Precipitation Wind Pressure Humidity
    00:00 0°C° 0.3 mm 3 mps 748 mmHg 95%
    01:00 +1°C° 0.3 mm 3 mps 748 mmHg 95%
    02:00 +1°C° 0.3 mm 3 mps 747 mmHg 96%
    03:00 +1°C° 0.3 mm 3 mps 746 mmHg 96%
    04:00 +1°C° 0.3 mm 3 mps 745 mmHg 96%
    05:00 +1°C° 0.3 mm 3 mps 745 mmHg 97%
    06:00 +2°C° 0.2 mm 2 mps 745 mmHg 97%
    07:00 +2°C° 0.2 mm 2 mps 744 mmHg 97%
    08:00 +2°C° 0.2 mm 2 mps 744 mmHg 97%
    09:00 +2°C° 0.1 mm 2 mps 744 mmHg 96%
    10:00 +2°C° 0.1 mm 2 mps 744 mmHg 96%
    11:00 +3°C° 0.1 mm 2 mps 744 mmHg 95%
    12:00 +2°C° 0.3 mm 3 mps 744 mmHg 94%
    13:00 +1°C° 0.3 mm 3 mps 745 mmHg 93%
    14:00 0°C° 0.3 mm 4 mps 745 mmHg 92%
    15:00 0°C° 0.2 mm 4 mps 745 mmHg 91%
    16:00 0°C° 0.2 mm 4 mps 745 mmHg 90%
    17:00 -1°C° 0.2 mm 4 mps 745 mmHg 90%
    18:00 0°C° 0 mm 3 mps 745 mmHg 90%
    19:00 0°C° 0 mm 3 mps 746 mmHg 91%
    20:00 0°C° 0 mm 3 mps 746 mmHg 92%
    21:00 0°C° 0.1 mm 3 mps 746 mmHg 92%
    22:00 0°C° 0.1 mm 3 mps 747 mmHg 92%
    23:00 +1°C° 0.1 mm 3 mps 747 mmHg 92%

    19 November, Monday

    Time Temperature Precipitation Wind Pressure Humidity
    00:00 +1°C° 0.1 mm 3 mps 748 mmHg 92%
    01:00 0°C° 0.1 mm 3 mps 748 mmHg 92%
    02:00 0°C° 0.1 mm 3 mps 748 mmHg 92%
    03:00 0°C° 0.1 mm 3 mps 749 mmHg 92%
    04:00 0°C° 0.1 mm 3 mps 749 mmHg 92%
    05:00 0°C° 0.1 mm 3 mps 749 mmHg 92%
    06:00 0°C° 0.1 mm 3 mps 749 mmHg 91%
    07:00 0°C° 0.1 mm 3 mps 750 mmHg 91%
    08:00 0°C° 0.1 mm 3 mps 750 mmHg 91%
    09:00 0°C° 0.1 mm 3 mps 750 mmHg 90%
    10:00 0°C° 0.1 mm 3 mps 751 mmHg 89%
    11:00 0°C° 0.1 mm 3 mps 751 mmHg 88%
    12:00 0°C° 0.1 mm 3 mps 751 mmHg 89%
    13:00 0°C° 0.1 mm 3 mps 752 mmHg 89%
    14:00 +1°C° 0.1 mm 2 mps 752 mmHg 89%
    15:00 +1°C° 0 mm 2 mps 752 mmHg 91%
    16:00 +1°C° 0 mm 2 mps 752 mmHg 92%
    17:00 -1°C° 0 mm 2 mps 752 mmHg 93%
    18:00 -1°C° 0 mm 2 mps 753 mmHg 93%
    19:00 -1°C° 0 mm 3 mps 753 mmHg 92%
    20:00 -1°C° 0 mm 3 mps 754 mmHg 92%
    21:00 -1°C° 0 mm 3 mps 754 mmHg 91%
    22:00 -1°C° 0 mm 3 mps 755 mmHg 91%
    23:00 -2°C° 0 mm 3 mps 755 mmHg 90%

    20 November, Tuesday

    Time Temperature Precipitation Wind Pressure Humidity
    00:00 -2°C° 0 mm 3 mps 755 mmHg 90%
    01:00 -4°C° 0 mm 3 mps 755 mmHg 89%
    02:00 -4°C° 0 mm 3 mps 756 mmHg 89%
    03:00 -4°C° 0 mm 2 mps 756 mmHg 88%
    04:00 -5°C° 0 mm 2 mps 756 mmHg 87%
    05:00 -5°C° 0 mm 2 mps 755 mmHg 86%
    06:00 -5°C° 0 mm 2 mps 755 mmHg 84%
    07:00 -5°C° 0 mm 2 mps 755 mmHg 83%
    08:00 -5°C° 0 mm 2 mps 755 mmHg 81%
    09:00 -4°C° 0 mm 2 mps 755 mmHg 79%
    10:00 -3°C° 0 mm 2 mps 755 mmHg 76%
    11:00 -2°C° 0 mm 2 mps 755 mmHg 74%
    12:00 -2°C° 0 mm 2 mps 755 mmHg 74%
    13:00 -2°C° 0 mm 2 mps 755 mmHg 75%
    14:00 -2°C° 0 mm 2 mps 755 mmHg 75%
    15:00 -2°C° 0 mm 2 mps 754 mmHg 78%
    16:00 -3°C° 0 mm 2 mps 754 mmHg 80%
    17:00 -4°C° 0 mm 2 mps 754 mmHg 83%
    18:00 -4°C° 0 mm 2 mps 754 mmHg 83%
    19:00 -4°C° 0 mm 2 mps 754 mmHg 82%
    20:00 -4°C° 0 mm 2 mps 753 mmHg 82%
    21:00 -4°C° 0 mm 2 mps 753 mmHg 81%
    22:00 -4°C° 0 mm 2 mps 753 mmHg 80%
    23:00 -4°C° 0 mm 2 mps 753 mmHg 79%

    21 November, Wednesday

    Time Temperature Precipitation Wind Pressure Humidity
    00:00 -4°C° 0 mm 2 mps 753 mmHg 80%
    01:00 -4°C° 0 mm 2 mps 753 mmHg 80%
    02:00 -4°C° 0 mm 2 mps 752 mmHg 80%
    03:00 -4°C° 0 mm 2 mps 752 mmHg 81%
    04:00 -4°C° 0 mm 2 mps 752 mmHg 82%
    05:00 -4°C° 0 mm 2 mps 751 mmHg 83%
    06:00 -4°C° 0 mm 2 mps 751 mmHg 83%
    07:00 -4°C° 0 mm 2 mps 751 mmHg 84%
    08:00 -4°C° 0 mm 2 mps 751 mmHg 84%
    09:00 -5°C° 0 mm 3 mps 751 mmHg 82%
    10:00 -4°C° 0 mm 3 mps 750 mmHg 80%
    11:00 -2°C° 0 mm 3 mps 750 mmHg 77%
    12:00 -2°C° 0 mm 3 mps 750 mmHg 77%
    13:00 -2°C° 0 mm 3 mps 749 mmHg 76%
    14:00 -2°C° 0 mm 3 mps 749 mmHg 75%
    15:00 -2°C° 0 mm 3 mps 749 mmHg 76%
    16:00 -4°C° 0 mm 3 mps 748 mmHg 77%
    17:00 -4°C° 0 mm 3 mps 748 mmHg 78%
    18:00 -4°C° 0 mm 4 mps 748 mmHg 76%
    19:00 -4°C° 0 mm 4 mps 748 mmHg 74%
    20:00 -4°C° 0 mm 4 mps 747 mmHg 73%
    21:00 -4°C° 0 mm 4 mps 747 mmHg 71%
    22:00 -4°C° 0 mm 4 mps 747 mmHg 70%
    23:00 -4°C° 0 mm 4 mps 747 mmHg 68%
    Show more